Torna al catalogo

DELTA 1 DEB

AttivoLEO
NORAD 18906·DEBRIS·🇺🇸 United States

Lanciato Nov 6, 1973 da Vandenberg Space Force Base

Loading…

Prossimi Passaggi (prossime 24 ore)

TLE

AggiornatoSource: Space-Track

Epoca: Sep 14, 2026, 15:31 UTC

1 18906U 73086HB  26257.64707463 -.00000052  00000-0 -19634-4 0  9993
2 18906 102.2395 139.3000 0088779 292.3136  96.3914 12.55923780783292

Traccia DELTA 1 DEB in tempo reale con AllMySat

Download on the App Store